Regional Weather Roundup
Issued by NWS

Home | Current Version | Previous Version | Text Only | Print | Product List | Glossary On
Versions: 1 2 3 4 5 6 7 8 9 10 11 12 13 14 15 16 17 18 19 20 21 22 23 24 25 26 27 28 29 30 31 32 33 34 35 36 37 38 39 40 41 42 43 44 45 46 47 48 49 50
000
ASUS45 KREV 011510
RWRNV
NEVADA REGIONAL WEATHER ROUNDUP
NATIONAL WEATHER SERVICE RENO NV
800 AM PDT WED JUL 01 2015

NOTE: "FAIR" INDICATES FEW OR NO CLOUDS BELOW 12,000 FEET WITH NO
SIGNIFICANT WEATHER AND/OR OBSTRUCTIONS TO VISIBILITY.

NVZ001-003-004-011600-
WESTERN NEVADA

CITY           SKY/WX    TMP DP  RH WIND       PRES   REMARKS
RENO           PTSUNNY   74  52  46 CALM      30.13S
CARSON CITY    FAIR      70  52  52 SW3       30.18R
SLIDE MTN        N/A     61  43  51 NE18        N/A
PYRAMID LAKE     N/A     81 N/A N/A CALM        N/A
FALLON         CLOUDY    78  54  43 S7        30.08R
LOVELOCK       PTSUNNY   78  51  38 CALM      30.08R
HAWTHORNE      SUNNY     73  52  46 CALM      30.13S
$$

NVZ002-CAZ072-073-011600-
NORTHERN AND CENTRAL SIERRA

CITY           SKY/WX    TMP DP  RH WIND       PRES   REMARKS
S. LAKE TAHOE  PTSUNNY   62  51  67 CALM      30.27R
TRUCKEE        SUNNY     61  48  63 CALM      30.27R
SQUAW VLY 8000 NOT AVBL
SUSANVILLE     SUNNY     73  45  35 W3        30.11R
BLUE CANYON    PTSUNNY   77  46  33 VRB6      30.18R
MAMMOTH LAKES  FAIR      59  46  63 E10G20    30.38R
$$

NVZ030-031-036-011600-
NORTHERN NEVADA

CITY           SKY/WX    TMP DP  RH WIND       PRES   REMARKS
ELKO           MOSUNNY   74  56  53 CALM      30.18F
WINNEMUCCA     MOSUNNY   78  47  33 SE3       30.11
WENDOVER       MOSUNNY   82  52  34 E8        30.11R
$$

NVZ035-037-011600-
CENTRAL NEVADA

CITY           SKY/WX    TMP DP  RH WIND       PRES   REMARKS
ELY            MOSUNNY   68  51  54 CALM      30.26F
EUREKA           N/A     73  47  39 SW3       30.24R
$$

NVZ013-014-011600-
SOUTH CENTRAL NEVADA

CITY           SKY/WX    TMP DP  RH WIND       PRES   REMARKS
TONOPAH        PTSUNNY   76  51  41 SW5       30.23S
$$

NVZ017-020-022-011600-
SOUTHERN NEVADA

CITY           SKY/WX    TMP DP  RH WIND       PRES   REMARKS
LAS VEGAS      PTSUNNY   94  55  26 NW3       29.89S
N. LAS VEGAS   PTSUNNY   93  56  28 NW23G31   29.90S
NELLIS AFB     PTSUNNY   93  56  28 S14       29.88S
HENDERSON      PTSUNNY   93  56  28 W8        29.97R
MERCURY        CLOUDY    83  55  38 W14       30.05S
$$


USA.gov is the U.S. government's official web portal to all federal, state and local government web resources and services.